Location: Albany
(35.0170°S, 117.8920°E)
Time: 01:02:03
(UTC+08:00)

Explorer 7 - Pass Details

Date: 26 January 2021
Orbit: 484 x 677 km, 50.3° (Epoch: 01 March)

Event Time Altitude Azimuth Distance (km) Brightness Sun altitude
Rises 19:59:25 0° 224° (SW) 2,964 12.3 -8.1°
Reaches altitude 10° 20:02:43 10° 201° (SSW) 2,013 10.5 -8.6°
Maximum altitude 20:05:26 15° 165° (SSE) 1,654 9.5 -9.1°
Drops below altitude 10° 20:08:05 10° 129° (SE) 1,934 9.4 -9.6°
Enters shadow 20:10:30 - 109° (ESE) 2,579 9.9 -10.0°
Sets 20:11:09 0° 105° (ESE) 2,784 - -10.1°
